Simultaneous Nadir Overpasses (SNOs) Predictions

Prediction of SNOs between GOES-15 and METOP-B Satellite Orbit:

Table of predicted SNOs for the next 14.0 days since TLE Epoch: 10/3/2025
Index Date Time (GOES-15) GOES-15 Lat,Lon METOP-B Lat,Lon Distance(km) Time Diff (sec)
1 10/04/2025 05:02:04 0.55, 61.30 0.79, 60.10 136.33 80
2 10/05/2025 04:38:52 0.52, 61.30 -0.30, 65.06 428.54 80
3 10/06/2025 17:00:42 -0.56, 61.43 -0.79, 60.43 113.55 80
4 10/07/2025 16:37:30 -0.54, 61.44 0.32, 65.40 450.86 80
5 10/09/2025 04:59:12 0.58, 61.33 0.72, 60.80 61.64 80
6 10/11/2025 16:57:50 -0.59, 61.48 -0.67, 61.13 40.43 80
7 10/14/2025 04:53:40 0.61, 61.40 0.59, 61.49 9.49 80
8 10/16/2025 16:52:17 -0.62, 61.56 -0.55, 61.82 30.66 80
